Plattsburgh, NY

7:41 PM EST on January 23, 2018 (GMT -0500)
Plattsburgh International

Weather History for KPBG - April, 2014

Change the Weather History Date:

Sunday, April 13, 2014

  Actual Average Record
Temperature  
Mean Temperature 52 °F 42 °F  
Max Temperature 65 °F 52 °F 84 °F (1968)
Min Temperature 39 °F 31 °F 17 °F (1973)
Degree Days  
Heating Degree Days 13 23  
Month to date heating degree days 314 341  
Since 1 July heating degree days 7505 7024  
Cooling Degree Days 0 0  
Month to date cooling degree days 0 0  
Year to date cooling degree days 0 0  
Growing Degree Days 2 (Base 50)    
Moisture  
Dew Point 41 °F    
Average Humidity 76    
Maximum Humidity 100    
Minimum Humidity 52    
Precipitation  
Precipitation 0.18 in - 0.46 in (1972)
Month to date precipitation 1.05  
Year to date precipitation 3.04  
Sea Level Pressure  
Sea Level Pressure 29.99 in    
Wind  
Wind Speed 8 mph (SE)    
Max Wind Speed 22 mph    
Max Gust Speed 29 mph    
Visibility 9 miles    
Events Rain , Thunderstorm    
T = Trace of Precipitation, MM = Missing Value Source: NWS Daily Summary

Daily Weather History Graph

Daily Weather History Graph

Search for Another Location

Airport or City:

Trip Planner

Search our weather history database for the weather conditions in past years. The results will help you decide how hot, cold, wet, or windy it might be!

Date:

Astronomy

Apr. 13, 2014 Rise Set
Actual Time 6:13 AM EDT 7:36 PM EDT
Civil Twilight 5:42 AM EDT 8:06 PM EDT
Nautical Twilight 5:06 AM EDT 8:43 PM EDT
Astronomical Twilight 4:27 AM EDT 9:22 PM EDT
Moon 6:08 PM EDT (4/13) 5:14 AM EDT (4/13)
Length of Visible Light 14h 23m
Length of Day
13h 23m
Waxing Gibbous, 97% of the Moon is Illuminated
Apr 13
Waxing Gibbous
Apr 15
Full
Apr 22
Last Quarter
Apr 29
New
May 6
First Quarter

Hourly Weather History & Observations

Time (EDT) Temp. Windchill Dew Point Humidity Pressure Visibility Wind Dir Wind Speed Gust Speed Precip Events Conditions
12:53 AM 46.0 °F - 33.1 °F 61% 30.20 in 10.0 mi Calm Calm - 0.00 in Rain Light Rain
1:53 AM 44.1 °F 41.5 °F 36.0 °F 73% 30.18 in 10.0 mi NW 4.6 mph - 0.00 in   Overcast
2:53 AM 41.0 °F 39.0 °F 37.0 °F 86% 30.18 in 10.0 mi South 3.5 mph - N/A   Overcast
3:53 AM 41.0 °F - 36.0 °F 82% 30.18 in 10.0 mi Calm Calm - N/A   Overcast
4:53 AM 41.0 °F - 36.0 °F 82% 30.15 in 10.0 mi Calm Calm - N/A   Overcast
5:53 AM 42.1 °F - 36.0 °F 79% 30.13 in 10.0 mi Calm Calm - 0.00 in Rain Light Rain
6:53 AM 41.0 °F - 39.0 °F 93% 30.12 in 10.0 mi Calm Calm - 0.01 in Rain Light Rain
7:53 AM 39.9 °F 35.8 °F 39.0 °F 97% 30.12 in 8.0 mi SSE 5.8 mph - 0.07 in Rain Light Rain
8:53 AM 39.0 °F 32.8 °F 37.9 °F 96% 30.09 in 6.0 mi ESE 9.2 mph - 0.01 in Rain Light Rain
9:53 AM 39.9 °F 36.7 °F 39.9 °F 100% 30.08 in 8.0 mi SSE 4.6 mph - 0.03 in Rain Light Rain
10:53 AM 39.9 °F 32.5 °F 39.0 °F 97% 30.05 in 8.0 mi SE 12.7 mph - 0.01 in Rain Light Rain
11:53 AM 42.1 °F 35.2 °F 41.0 °F 96% 30.01 in 9.0 mi SSE 12.7 mph - 0.00 in   Overcast
12:53 PM 48.0 °F - 44.1 °F 86% 29.99 in 10.0 mi SE 12.7 mph - N/A   Overcast
1:53 PM 51.1 °F - 42.1 °F 71% 29.95 in 10.0 mi SE 13.8 mph - N/A   Scattered Clouds
2:53 PM 61.0 °F - 46.0 °F 58% 29.90 in 10.0 mi SSE 18.4 mph - N/A   Partly Cloudy
3:53 PM 60.1 °F - 46.0 °F 60% 29.86 in 10.0 mi SSE 16.1 mph - N/A   Clear
4:53 PM 64.9 °F - 46.0 °F 50% 29.83 in 10.0 mi SSE 20.7 mph 27.6 mph N/A   Clear
5:53 PM 64.9 °F - 46.9 °F 52% 29.83 in 10.0 mi SSE 13.8 mph - N/A   Partly Cloudy
6:53 PM 53.1 °F - 42.1 °F 66% 29.82 in 10.0 mi SE 6.9 mph - N/A   Partly Cloudy
8:53 PM 52.0 °F - 43.0 °F 71% 29.80 in 10.0 mi South 4.6 mph - N/A   Scattered Clouds
9:53 PM 52.0 °F - 43.0 °F 71% 29.83 in 10.0 mi Calm Calm - N/A   Mostly Cloudy
10:41 PM 46.9 °F - 42.1 °F 83% 29.86 in 10.0 mi NNE 9.2 mph - 0.01 in Rain , Thunderstorm Light Rain
10:53 PM 45.0 °F 39.3 °F 42.1 °F 90% 29.87 in 10.0 mi North 11.5 mph - 0.01 in Rain Light Rain
11:15 PM 42.1 °F 37.1 °F 39.9 °F 92% 29.87 in 10.0 mi North 8.1 mph - 0.01 in Thunderstorm Overcast
11:44 PM 43.0 °F - 42.1 °F 97% 29.88 in 6.0 mi Calm Calm - 0.03 in Rain Rain
11:53 PM 43.0 °F 41.3 °F 42.1 °F 97% 29.88 in 6.0 mi South 3.5 mph - 0.03 in   Overcast